Theta_e
324 323 322 321 321 321 322 324 324 321 319 320 322 324 323 322 322 322 320 320 322 324 324 323 322 322 321 321 321 321 323 324 324 324 324 324 324 325 325 325 326 327
323 323 322 323 324 323 322 323 323 320 318 319 321 321 320 319 320 320 318 319 321 323 323 323 322 322 322 322 322 322 323 323 324 325 324 324 324 325 325 325 325 326
323 323 323 324 325 325 324 323 321 319 318 318 319 318 318 318 319 317 317 319 321 322 323 322 322 322 321 322 322 321 322 322 322 323 323 322 324 325 326 326 326 326
323 324 326 327 327 327 325 323 319 317 316 317 317 317 317 318 318 316 317 319 321 323 322 322 322 322 323 323 323 322 322 322 322 323 323 323 324 325 326 327 327 327
323 326 328 329 329 328 325 322 318 316 315 315 316 317 317 318 318 317 318 320 321 323 321 320 323 325 326 326 326 325 325 325 326 326 325 325 325 326 326 327 327 327
326 330 333 331 328 326 324 321 318 316 315 315 316 317 317 318 319 319 318 320 322 323 322 322 325 327 327 327 328 328 328 328 328 328 328 327 327 327 327 326 326 326
329 332 335 332 326 324 323 322 320 318 315 315 316 317 318 320 320 319 319 322 325 326 325 326 327 328 328 328 328 328 328 328 329 329 329 328 328 328 327 327 327 327
329 331 334 333 327 324 323 321 321 320 317 316 317 318 320 322 320 317 319 323 326 328 328 328 329 329 329 329 329 328 328 328 328 329 329 328 328 328 327 327 328 328
329 331 334 334 329 326 325 322 320 320 319 318 318 319 323 324 320 318 319 324 327 328 329 329 329 329 329 329 329 329 328 328 328 328 328 328 328 327 327 327 328 328
331 332 335 336 330 326 326 325 322 320 319 319 318 320 324 325 323 323 324 326 328 328 328 328 328 329 329 329 329 329 329 328 328 328 327 327 326 326 326 327 328 327
335 336 336 336 333 329 327 326 324 320 319 319 319 320 324 326 326 326 326 326 327 327 328 328 328 329 329 329 329 329 329 328 328 327 326 325 325 326 326 326 327 326
339 340 337 336 337 335 328 324 323 320 320 320 318 319 323 327 326 325 325 327 327 327 328 328 328 329 329 329 329 329 328 328 327 326 324 325 325 325 326 326 325 324
341 340 339 338 340 337 328 323 323 322 322 322 318 318 322 326 324 322 325 328 328 328 328 328 328 329 328 328 327 327 327 326 326 324 324 324 324 324 324 324 323 323
344 344 344 342 342 338 329 324 324 323 324 323 319 319 323 324 323 321 324 329 328 328 329 328 329 328 327 325 324 324 324 324 323 323 323 324 324 324 324 324 325 325
349 349 349 347 345 340 330 325 324 324 325 323 321 322 323 324 323 323 325 329 329 329 329 329 328 327 324 323 323 323 323 323 323 323 324 325 326 326 326 326 326 326
351 351 350 349 348 340 329 324 323 323 324 323 322 322 322 324 326 326 327 329 330 330 330 329 327 325 324 323 323 323 323 324 324 325 326 327 327 327 327 327 327 327
351 351 349 349 348 338 328 325 324 325 325 322 320 322 323 326 327 326 327 330 330 331 330 329 327 326 324 324 325 326 326 327 327 327 327 328 328 328 327 327 327 327
352 351 348 348 345 336 331 330 328 329 326 321 321 325 327 326 324 324 328 331 331 331 329 328 329 328 326 326 327 329 329 329 329 329 329 328 328 328 328 328 327 327
351 349 348 346 341 337 337 336 331 330 326 321 323 328 328 324 321 323 328 331 331 330 328 328 331 331 328 328 329 331 332 332 332 332 330 329 328 328 328 328 328 327
351 348 346 344 338 334 337 336 332 330 326 323 324 328 328 325 321 324 329 330 329 329 329 330 332 332 329 329 331 333 334 334 333 332 331 330 329 329 328 328 328 327
349 347 344 341 335 333 335 335 332 328 324 323 325 329 329 325 322 325 328 328 329 330 331 332 332 332 330 330 333 334 333 333 332 330 330 330 330 329 328 327 326 326
348 345 342 337 333 334 336 334 331 326 324 324 327 331 332 327 322 324 325 327 330 333 333 333 333 332 331 332 334 334 332 331 329 329 329 329 329 328 326 325 324 324
346 344 341 336 334 336 337 334 329 326 324 326 330 334 334 328 322 322 324 328 332 334 334 334 333 332 332 333 334 333 331 330 329 329 329 329 328 327 325 323 322 321
346 343 341 337 335 337 337 333 329 327 328 330 334 335 332 327 322 322 326 330 334 335 335 335 334 333 332 333 333 332 331 330 329 329 329 328 327 325 322 320 319 319
345 343 341 339 337 338 337 332 328 328 330 333 335 334 330 324 322 324 330 334 335 335 336 335 334 333 333 333 332 331 330 330 329 329 328 327 324 321 320 319 319 319
345 344 342 340 339 339 337 332 328 329 332 334 335 333 327 322 324 329 333 336 336 337 337 336 334 333 333 332 331 330 330 329 328 328 326 323 321 320 320 319 319 319
Wind_Speed
25 23 22 20 18 16 16 16 15 16 17 17 17 17 16 15 14 13 11 10 9 9 9 8 7 7 7 8 8 9 9 8 8 8 8 8 8 8 8 8 9 10
27 25 23 22 19 18 16 15 16 16 17 18 18 17 16 16 14 13 11 10 10 9 9 9 8 8 8 8 9 10 10 10 9 9 9 9 9 9 9 9 10 11
29 27 25 23 21 19 17 16 16 18 18 19 18 17 17 16 15 13 12 12 11 10 10 10 9 9 7 7 8 9 9 10 9 10 10 10 10 10 9 9 10 11
32 29 27 24 21 19 17 16 18 19 20 20 18 17 17 16 16 14 13 13 12 11 11 10 9 7 5 5 5 5 6 7 7 8 10 10 10 10 10 10 11 11
33 30 28 25 23 20 18 18 19 20 20 19 17 17 17 16 16 14 13 13 12 12 12 11 9 6 4 4 4 4 4 5 5 7 9 9 9 10 10 11 12 13
35 33 30 26 24 21 19 19 19 20 20 18 17 18 17 16 15 14 14 13 12 12 12 11 9 7 6 5 5 5 6 6 7 8 10 10 10 10 11 12 13 13
38 35 31 27 24 22 20 18 18 18 18 17 17 18 17 15 15 15 15 14 13 12 11 10 9 8 7 8 8 8 9 9 10 11 13 13 13 13 13 13 14 15
40 37 33 28 26 24 21 19 18 17 17 18 18 17 16 15 16 17 17 15 13 12 11 11 10 9 9 10 10 11 11 12 13 14 15 16 16 15 15 14 15 16
42 38 34 30 28 27 24 21 19 17 17 18 18 18 16 16 16 17 18 16 15 14 13 13 12 11 11 12 12 13 14 14 15 15 16 17 17 16 15 15 16 17
45 41 37 34 32 30 27 26 24 20 18 18 18 19 17 16 16 16 17 17 16 15 15 14 13 12 12 13 13 14 16 16 16 16 16 16 16 16 15 15 16 17
46 43 40 37 35 32 30 28 26 25 21 18 19 20 19 18 17 16 17 18 17 16 15 15 14 14 14 14 15 16 17 17 17 16 15 14 14 14 15 15 16 17
47 46 44 41 38 35 33 30 27 27 25 21 21 21 21 21 20 19 20 20 19 17 17 16 16 15 16 15 16 17 18 18 17 15 13 12 13 14 14 15 16 17
51 50 48 44 41 38 36 33 30 30 28 25 24 23 23 24 23 22 21 21 20 19 18 17 16 16 16 16 16 17 18 18 17 15 13 12 13 14 14 16 17 18
52 52 50 47 43 40 38 35 34 35 32 28 27 26 25 26 25 22 21 22 22 21 19 18 17 16 16 16 17 17 17 17 16 15 13 12 13 14 15 16 17 18
51 51 50 47 45 42 39 37 36 35 32 30 30 27 26 28 26 23 23 24 23 22 20 18 17 17 16 16 16 16 16 16 15 14 13 13 14 15 17 18 18 19
49 50 49 49 50 46 39 36 34 32 31 32 32 30 29 30 28 25 26 26 25 23 20 18 18 17 17 17 16 15 15 14 14 14 14 15 17 18 19 20 21 21
48 50 48 51 55 49 40 37 37 35 34 33 34 33 30 29 28 27 28 27 26 24 20 18 18 18 17 17 16 14 13 13 14 15 17 18 19 20 22 23 23 23
48 48 47 51 55 52 44 43 43 40 36 35 36 33 27 25 28 30 29 27 26 24 21 19 18 18 18 18 16 14 13 14 16 17 19 20 21 22 24 25 25 25
46 46 46 49 54 53 48 45 43 40 37 37 37 32 25 25 30 31 29 27 26 25 22 20 19 18 18 18 17 15 14 15 17 18 20 21 22 23 25 25 26 27
44 43 44 49 52 51 46 41 39 37 37 37 37 32 27 27 30 31 29 28 27 25 23 21 19 18 18 18 16 15 15 16 18 19 21 22 23 24 24 25 27 28
42 41 44 48 49 45 39 35 35 36 37 38 37 33 29 28 30 30 30 29 27 25 23 22 20 18 18 17 16 15 16 18 18 20 22 23 23 23 23 25 28 28
40 40 44 47 44 38 32 32 34 36 38 37 35 32 30 30 31 31 31 30 27 25 24 22 20 19 19 18 16 17 18 18 19 21 22 22 22 22 24 26 26 25
39 41 44 46 44 34 28 29 32 36 37 35 33 32 32 31 32 32 31 29 26 25 25 23 21 20 19 19 18 19 19 19 20 21 21 21 22 23 24 23 23 23
38 40 43 44 42 31 25 27 31 33 34 33 31 31 30 30 31 31 30 28 25 24 25 24 23 22 21 21 20 20 20 20 20 20 21 22 22 23 23 22 23 24
37 39 40 40 37 26 21 24 30 32 32 32 30 28 28 29 30 30 29 28 26 26 26 26 26 24 24 22 20 19 19 19 20 21 21 22 22 23 23 23 23 22
35 36 37 36 32 24 18 22 29 30 28 28 26 25 27 28 29 29 29 29 29 29 29 29 29 27 26 23 20 19 20 20 21 21 21 21 22 23 23 22 21 20
Wind_Direction
222 224 226 228 231 235 240 244 250 255 258 258 258 261 260 259 258 260 261 253 244 243 245 251 258 264 270 271 271 273 272 271 270 271 272 274 277 280 281 280 277 271
220 222 225 228 230 234 238 243 251 255 257 257 258 258 256 253 255 259 255 244 237 237 239 245 252 257 261 265 268 269 271 272 272 272 274 275 276 278 280 282 280 277
220 222 225 227 229 232 236 243 249 251 251 252 253 255 254 253 255 255 246 235 231 229 232 241 247 250 256 262 266 270 275 279 282 282 281 279 278 278 280 282 280 279
220 223 226 228 230 232 235 241 246 246 245 246 249 251 251 252 252 248 237 229 225 223 229 235 235 238 248 253 261 271 277 284 289 288 286 285 283 282 283 283 281 280
222 225 227 228 230 230 232 238 243 245 245 245 247 246 247 249 248 240 228 221 219 221 225 225 222 228 244 248 256 267 273 286 294 293 295 298 296 292 291 289 287 285
225 226 227 227 227 228 231 236 242 245 246 246 245 244 245 246 241 230 219 213 213 217 219 218 220 231 247 257 266 274 282 292 297 296 297 301 302 300 298 294 293 291
226 226 227 226 226 227 228 236 245 248 248 247 244 243 243 239 231 219 210 206 207 213 215 218 226 237 250 262 273 282 290 293 293 291 291 294 297 299 301 297 293 291
226 226 226 224 224 225 224 228 240 250 254 248 241 241 238 231 224 213 207 208 212 217 220 225 233 241 250 261 271 281 287 288 288 287 288 290 292 297 301 296 290 288
226 226 225 222 221 223 220 219 226 242 254 249 240 239 233 223 218 213 212 217 222 224 227 231 238 245 251 261 271 280 285 287 286 287 288 289 290 295 297 291 286 287
228 227 224 221 220 220 218 216 217 223 237 246 241 236 229 221 216 216 219 224 227 228 232 236 242 249 256 265 274 283 287 287 286 287 288 288 289 291 291 287 285 286
231 228 225 223 221 219 218 218 216 212 218 233 238 235 230 223 221 223 227 230 231 234 238 242 247 253 261 268 277 285 286 284 284 287 288 288 287 287 286 284 284 287
233 229 227 225 222 219 218 218 214 208 209 218 230 235 232 227 229 235 233 233 237 240 243 247 251 256 263 271 279 283 283 282 284 286 287 289 289 287 285 286 289 293
235 232 230 226 222 219 218 215 212 212 212 214 223 228 227 228 238 242 234 233 241 245 247 253 255 260 266 274 280 282 283 284 284 283 285 290 294 293 293 296 299 302
236 235 231 225 221 221 219 215 216 219 217 214 216 218 218 225 238 240 232 234 243 245 249 254 256 261 268 275 279 280 280 281 279 277 281 288 294 296 300 303 307 311
236 235 229 220 218 220 218 216 217 220 219 216 214 212 213 223 234 236 231 236 242 244 248 253 256 262 269 274 277 275 273 273 272 275 281 288 292 296 299 303 307 311
237 235 229 219 216 215 212 211 213 216 222 222 218 216 217 224 234 234 230 235 242 244 248 254 259 265 270 272 272 267 265 267 271 279 285 289 291 293 295 299 301 303
239 237 230 222 217 210 205 208 213 219 223 220 220 221 223 229 234 229 227 234 241 245 249 254 261 269 271 269 265 260 261 267 274 281 284 286 289 290 292 296 297 297
241 237 230 224 218 211 208 212 217 221 220 214 217 223 226 230 230 225 225 234 241 246 249 253 261 271 272 267 261 260 265 271 276 281 283 285 287 289 291 294 295 296
242 235 228 223 218 214 214 217 219 221 218 212 215 225 230 230 226 224 227 234 240 244 247 251 260 270 272 265 260 263 269 273 277 282 284 286 287 290 292 294 294 296
240 233 224 219 216 211 211 217 223 223 216 211 216 227 236 233 227 228 230 233 238 242 246 252 260 267 268 262 259 264 269 271 277 281 284 285 288 291 293 294 295 297
236 229 220 216 211 206 209 222 230 223 213 212 218 228 238 238 232 233 234 234 237 241 248 254 260 265 265 260 261 267 269 272 280 285 288 288 289 292 295 296 296 296
233 224 217 213 207 207 219 231 228 217 212 214 220 230 242 243 236 236 237 236 238 244 250 255 259 263 263 260 264 270 273 279 287 291 292 290 291 295 297 296 296 296
232 222 217 213 209 213 232 235 222 212 211 215 222 234 245 245 238 237 239 240 242 246 251 255 259 261 260 260 265 272 277 284 289 291 291 291 295 299 299 298 298 298
231 224 222 217 212 219 238 232 217 211 212 216 226 238 245 244 239 239 242 244 246 249 252 255 257 257 256 259 265 274 281 286 289 291 293 295 299 301 300 301 302 300
230 228 228 222 219 231 245 227 214 213 216 222 233 243 246 243 239 241 246 248 249 251 253 254 255 255 255 260 271 279 282 286 291 294 296 299 301 302 302 301 300 297
234 234 233 227 228 242 245 221 211 213 220 230 241 249 247 242 241 245 249 251 252 254 255 253 253 253 254 262 279 286 284 289 294 296 298 300 301 303 304 301 297 292